EHI
0 2 5 6 6 3 1 0 0 1 3 3 4 5 3 1 0 0 0 0 0 0 0 0 0 0 0 0 1 2 3 2 1 0 0 0 0 0 0 0 0 0 0
1 3 5 6 6 3 1 0 0 0 1 2 3 4 4 2 1 0 0 0 0 0 0 0 0 0 0 0 1 2 2 1 0 0 0 0 0 0 0 0 0 0 0
3 3 4 5 6 4 2 0 0 0 0 1 1 2 3 3 2 1 0 0 0 0 0 0 0 0 0 0 1 2 1 0 0 0 0 0 0 0 0 0 0 0 0
3 3 3 4 6 6 4 1 0 0 0 0 0 1 1 2 2 2 1 0 0 0 0 0 0 0 0 0 1 1 0 0 0 0 0 0 0 0 0 0 0 0 0
3 3 3 4 5 6 4 1 0 0 0 0 0 0 0 1 1 1 1 0 0 0 0 0 0 1 1 1 0 0 0 0 0 0 0 0 0 0 0 0 0 0 0
3 3 3 3 4 4 3 1 0 0 0 0 0 0 0 0 0 0 0 0 0 0 0 0 0 1 2 2 1 0 0 0 0 0 0 0 0 0 0 0 0 0 0
3 3 3 3 3 3 2 1 0 0 0 0 0 0 0 0 0 0 0 0 0 0 0 0 0 0 1 2 1 0 0 0 0 0 0 0 0 0 0 0 0 0 0
3 3 3 3 3 3 3 1 0 0 0 0 0 0 0 0 0 0 0 0 0 0 0 0 0 1 2 3 1 0 0 0 0 0 0 0 0 0 0 0 0 0 0
3 3 3 3 3 3 3 2 1 1 0 0 0 0 0 0 0 0 0 0 0 0 0 0 1 2 3 3 1 0 0 0 0 0 0 0 0 0 0 0 0 0 0
3 3 3 3 3 3 3 3 2 1 0 0 0 0 0 0 0 0 0 0 0 0 0 0 1 2 3 2 1 0 0 0 0 0 0 0 0 0 0 0 0 0 0
3 3 3 3 3 3 3 3 2 1 0 0 0 0 0 0 0 0 0 0 0 0 0 0 0 1 2 1 0 0 0 0 0 0 0 0 0 0 0 0 0 0 0
3 3 3 3 3 3 3 2 1 0 0 0 0 0 0 0 0 0 0 0 0 0 0 0 0 0 0 0 0 0 0 0 0 0 0 0 0 0 0 0 0 0 0
3 3 3 3 3 3 2 1 0 0 0 0 0 0 0 0 0 0 0 0 0 0 0 0 0 0 0 0 0 0 0 0 0 0 0 0 0 0 0 0 0 0 0
3 2 2 2 2 1 1 0 0 0 0 0 0 0 0 0 0 0 0 0 0 0 0 0 0 0 0 0 0 0 0 0 0 0 0 0 0 0 0 0 0 0 0
2 1 0 1 1 0 0 0 0 0 0 0 0 0 0 0 0 0 0 0 0 0 0 0 0 0 0 0 0 0 0 0 0 0 0 0 0 0 0 0 0 0 0
1 0 0 0 0 0 0 0 0 0 0 0 0 0 0 0 0 0 0 0 0 0 0 0 0 0 0 0 0 0 0 0 0 0 0 0 0 0 0 0 0 0 0
0 0 0 0 0 0 0 0 0 0 0 0 0 0 0 0 0 0 0 0 0 0 0 0 0 0 0 0 0 0 0 0 0 0 0 0 0 0 0 0 0 0 0
0 0 0 0 0 0 0 0 0 0 0 0 0 0 0 0 0 0 0 0 0 0 0 0 0 0 0 0 0 0 0 0 0 0 0 0 0 0 0 0 0 0 0
0 0 0 0 0 0 0 0 0 0 0 0 0 0 0 0 0 0 0 0 0 0 0 0 0 0 0 0 0 0 0 0 0 0 0 0 0 0 0 0 0 0 0
0 0 0 0 0 0 0 0 0 0 0 0 0 0 0 0 0 0 0 0 0 0 0 0 0 0 0 0 0 0 0 0 0 0 0 0 0 0 0 0 0 0 0
0 0 0 0 0 0 0 0 0 0 0 0 0 0 0 0 0 0 0 0 0 0 0 0 0 0 0 0 0 0 0 0 0 0 0 0 0 0 0 0 0 0 0
0 0 0 0 0 0 0 0 0 0 0 0 0 0 0 0 0 0 0 0 0 0 0 0 0 0 0 0 0 0 0 0 0 0 0 0 0 0 0 0 0 0 0
0 0 0 0 0 0 0 0 0 0 0 0 0 0 0 0 0 0 0 0 0 0 0 0 0 0 0 0 0 0 0 0 0 0 0 0 0 0 0 0 0 0 0
0 0 0 0 0 0 0 0 0 0 0 0 0 0 0 0 0 0 0 0 0 0 0 0 0 0 0 0 0 0 0 0 0 0 0 0 0 0 0 0 0 0 0
0 0 0 0 0 0 0 0 0 0 0 0 0 0 0 0 0 0 0 0 0 0 0 0 0 0 0 0 0 0 0 0 0 0 0 0 0 0 0 0 0 0 0
0 0 0 0 0 0 0 0 0 0 0 0 0 0 0 0 0 0 0 0 0 0 0 0 0 0 0 0 0 0 0 0 0 0 0 0 0 0 0 0 0 0 0
Wind_Speed
2 4 5 3 5 7 7 8 9 10 9 9 9 10 9 8 8 8 8 8 8 9 9 10 11 12 12 13 13 14 14 14 15 14 14 14 15 15 15 15 13 9 15
2 3 4 4 6 7 7 9 9 10 10 10 9 9 9 8 7 8 7 7 8 9 9 10 10 11 12 13 13 14 14 14 14 14 13 11 12 14 15 14 14 10 15
3 3 3 5 6 7 7 8 9 9 9 10 9 9 8 8 8 7 7 7 8 8 9 10 10 11 12 13 13 13 13 14 14 13 11 6 8 13 14 14 14 14 15
3 3 3 6 7 7 7 7 8 8 9 9 9 9 9 8 8 7 7 7 7 8 8 9 10 11 12 12 12 12 13 13 13 11 6 5 5 11 13 14 14 14 14
4 4 3 6 7 7 8 8 8 8 8 8 9 9 9 8 8 7 7 7 8 7 8 8 9 10 11 11 12 12 12 12 12 9 5 5 4 10 12 13 13 13 13
4 4 3 6 7 7 7 8 8 8 7 8 8 8 8 9 8 8 7 7 7 7 7 8 9 10 10 10 11 12 12 12 9 5 5 4 4 10 12 12 12 13 13
4 4 4 6 7 7 8 8 8 8 8 7 7 7 8 8 8 9 7 7 6 7 7 7 8 9 10 10 11 11 11 10 6 5 4 3 5 10 11 12 12 12 12
3 4 5 6 7 7 7 7 7 7 7 7 7 7 8 7 8 8 8 7 6 6 6 6 8 9 9 10 10 10 10 9 6 5 4 3 6 10 11 11 11 11 11
4 4 4 4 5 6 7 7 7 7 7 8 7 8 8 7 7 7 7 7 6 6 6 6 7 8 9 9 10 10 9 8 5 3 3 3 6 9 10 10 10 10 11
4 4 4 5 4 4 4 6 8 8 8 8 8 9 8 8 7 7 7 7 7 6 5 6 6 7 8 9 9 9 9 7 4 3 2 3 6 8 9 9 9 10 10
4 4 4 4 5 4 3 5 6 7 8 8 7 8 7 4 4 5 6 7 7 6 5 5 6 7 8 8 9 9 7 3 3 2 2 4 6 8 9 9 9 9 9
2 3 3 3 4 4 3 3 3 3 4 4 4 4 3 3 3 4 6 8 8 7 5 5 5 6 6 3 5 6 3 3 2 2 2 4 6 7 8 8 8 8 8
1 1 2 2 3 3 3 2 2 2 2 3 3 3 3 2 2 3 2 3 4 5 3 3 3 2 3 3 3 3 3 2 2 1 2 4 5 6 7 8 8 8 8
1 1 1 2 2 3 2 2 2 1 2 2 2 3 2 1 2 2 1 2 2 2 1 1 1 2 3 3 4 3 3 2 2 1 2 4 3 5 6 7 7 7 8
2 1 1 1 2 2 2 2 2 1 1 1 1 2 2 1 1 1 1 1 2 1 1 1 2 2 3 3 3 3 3 3 2 2 1 3 3 4 6 7 7 8 8
3 2 1 1 1 2 2 1 1 1 1 1 1 1 1 1 1 1 1 1 1 1 1 1 1 2 2 2 3 3 2 2 2 2 1 2 4 4 4 6 7 7 7
3 2 1 1 1 1 1 1 1 1 1 1 1 1 1 1 0 0 0 1 1 1 0 1 2 2 2 2 2 2 2 2 2 2 1 1 1 3 4 5 6 6 6
2 2 1 0 1 1 0 0 1 1 1 1 1 1 1 1 1 0 0 0 1 0 1 1 1 2 2 2 2 1 1 2 2 2 2 1 1 1 2 4 5 5 5
2 2 1 1 1 0 0 0 0 1 1 1 0 0 1 1 1 0 0 0 0 0 1 1 1 2 2 2 2 2 1 2 1 2 2 2 2 2 1 2 4 4 4
2 2 2 1 0 0 0 1 1 1 1 1 1 1 0 0 1 0 0 0 0 1 1 1 2 1 2 2 2 2 1 1 1 2 2 2 2 2 2 2 2 2 3
1 1 1 1 1 1 0 0 1 1 2 2 1 1 1 1 1 1 0 0 0 1 1 2 2 1 2 2 3 2 1 1 1 1 1 2 2 2 2 2 2 1 1
1 1 1 1 1 2 1 1 1 1 1 2 2 1 1 1 1 1 1 1 1 1 1 2 2 1 1 1 3 3 1 0 0 1 1 2 2 1 2 2 2 2 1
1 2 2 2 2 2 1 1 1 1 1 2 2 2 2 2 2 2 2 1 1 2 2 3 3 2 3 1 1 3 3 3 1 0 1 1 1 1 1 1 2 1 1
2 2 2 2 2 2 2 2 2 2 3 3 2 2 2 2 2 2 2 2 2 2 3 3 3 3 4 3 1 0 1 2 3 1 1 1 1 1 1 1 1 1 1
2 2 2 2 2 2 2 3 3 3 3 2 2 3 3 2 3 3 2 2 2 2 3 3 3 3 3 3 3 1 1 1 1 3 2 2 1 2 2 2 2 2 2
2 2 2 2 3 3 3 3 4 4 4 3 4 3 3 2 2 3 3 3 3 3 3 4 4 4 3 3 3 3 3 3 2 2 3 3 2 2 2 2 2 2 2
Wind_Direction
314 308 319 18 47 51 52 54 53 52 54 56 58 57 64 72 73 79 80 83 88 92 95 94 96 97 97 96 95 92 90 88 88 86 83 84 86 87 85 82 80 76 83
306 317 343 39 53 55 57 56 54 53 53 53 55 56 56 65 73 77 79 80 87 91 91 93 96 99 99 98 96 93 91 90 90 86 79 78 83 87 87 85 83 83 84
0 348 1 41 54 56 61 59 55 54 54 52 51 52 53 58 66 75 81 83 87 89 89 90 93 98 99 98 96 94 93 94 93 88 81 70 85 90 89 87 85 85 85
8 10 7 46 52 54 57 59 57 55 55 52 49 47 49 53 59 67 77 82 86 87 88 90 93 96 100 98 97 96 95 96 93 87 71 65 77 92 92 90 88 86 86
20 15 12 51 51 51 54 53 54 54 56 54 49 46 45 47 51 58 66 78 81 82 88 92 94 95 99 101 101 98 96 97 91 80 68 67 72 95 95 94 91 88 87
26 14 19 56 54 50 51 51 51 53 54 55 52 47 44 43 45 50 55 70 80 80 85 92 96 99 98 101 102 99 98 94 87 75 70 68 76 97 98 97 94 91 90
31 17 20 55 57 52 50 48 48 49 50 50 51 47 44 40 40 42 45 57 75 81 83 95 99 101 102 103 102 100 99 94 86 79 75 77 91 102 102 100 99 96 93
49 28 23 40 52 51 52 48 45 45 46 46 47 45 40 38 37 37 40 47 64 80 81 95 102 102 103 103 102 99 95 94 89 85 78 81 98 105 105 103 102 100 97
46 37 28 28 39 42 45 46 44 42 42 40 39 40 37 33 34 37 37 42 49 69 79 92 104 104 104 104 102 98 92 86 83 85 89 87 104 110 107 106 104 103 99
47 35 23 26 30 35 37 44 42 39 39 37 33 31 30 28 27 31 33 37 41 53 72 90 98 105 105 102 101 98 91 83 75 75 82 101 111 115 112 109 106 107 103
40 30 26 29 25 25 37 42 41 38 36 34 30 27 24 15 13 18 28 31 35 42 62 80 95 102 99 96 94 91 88 77 78 72 82 106 118 121 118 115 111 109 107
30 21 28 33 32 25 32 36 35 33 26 24 20 16 14 12 18 23 29 32 29 32 47 65 84 95 93 90 88 84 77 77 75 69 81 107 122 124 120 119 115 116 112
140 37 34 38 40 39 31 34 32 26 22 17 16 13 13 13 17 23 23 22 21 25 36 52 69 80 93 95 90 78 74 79 67 56 73 94 117 127 128 125 123 119 117
121 49 39 50 53 49 42 29 39 27 24 13 2 7 19 18 17 15 28 17 23 16 39 61 79 84 95 99 100 94 82 77 66 50 66 80 106 130 134 132 130 126 125
157 144 77 61 64 48 47 26 29 26 18 354 357 0 13 27 10 8 20 28 16 17 45 75 89 101 106 108 105 106 101 85 77 63 53 65 85 123 136 139 136 129 125
184 183 138 77 74 60 44 24 3 4 4 357 349 349 0 16 20 14 22 27 13 11 21 94 120 122 127 124 116 113 115 104 93 80 62 57 66 93 121 131 135 131 127
187 175 150 108 74 74 52 6 1 345 351 353 320 338 356 358 344 88 54 12 358 352 47 82 102 111 113 108 114 117 119 111 105 96 76 68 71 75 95 116 122 125 125
165 158 170 108 57 67 54 356 343 339 331 309 297 331 342 345 343 72 87 0 345 8 116 107 102 117 115 116 122 119 115 116 110 109 93 80 80 76 85 96 104 113 114
171 166 175 159 157 105 0 348 332 334 320 295 288 317 318 338 329 26 151 265 35 66 124 130 104 139 140 136 140 126 120 116 130 118 110 101 99 94 89 100 95 95 101
170 168 178 180 175 206 19 31 3 346 325 309 277 255 249 275 302 295 183 298 115 127 139 131 132 130 151 152 134 110 108 121 132 125 131 118 108 104 101 98 102 96 85
156 165 182 172 201 186 266 291 303 294 304 296 276 252 224 221 245 219 209 206 186 177 181 153 142 131 150 142 122 108 60 73 104 119 124 128 118 111 111 108 100 100 93
201 204 205 208 221 228 245 255 249 254 267 271 265 263 233 212 223 219 200 201 206 184 178 160 137 152 166 138 138 142 128 84 49 118 135 139 139 128 115 106 103 101 96
250 226 239 245 250 251 246 260 313 305 294 290 284 279 256 223 213 221 216 203 211 193 192 185 165 164 176 181 151 149 156 185 178 229 160 144 139 146 150 138 125 125 120
263 265 256 250 254 253 229 227 231 237 246 254 257 258 262 234 215 214 215 210 214 204 197 193 180 182 173 178 191 123 150 147 156 169 232 191 169 170 172 160 166 176 173
288 282 277 267 267 254 237 233 237 244 246 253 255 242 247 238 224 214 216 210 218 213 208 193 185 187 191 184 178 170 125 110 129 157 195 204 215 215 205 195 187 189 195
304 298 294 273 274 265 247 238 235 235 237 243 249 235 240 235 226 217 219 214 221 218 213 202 193 191 195 196 187 177 170 167 173 163 181 193 209 228 234 210 193 191 196